Temperature
20 18 17 17 17 16 16 15 15 14 14 14 13 13 13 13 13 13 12 12 12 12 12 12 12 12 13 13 13 13 13 14 14 14 15 15 15 15 16 16 16 16 17
20 18 17 17 17 16 15 15 15 14 14 13 13 13 13 13 13 12 12 12 12 12 12 12 12 12 12 12 12 13 13 13 14 14 15 15 15 15 15 16 16 16 16
20 19 18 17 16 16 15 15 14 14 13 13 13 13 13 13 13 13 12 12 12 12 12 12 12 12 12 12 12 13 13 13 13 14 14 15 16 15 15 15 16 16 16
20 19 18 17 17 16 15 15 14 14 13 13 13 13 13 13 13 12 12 12 12 12 12 12 12 12 12 12 12 12 13 13 13 13 14 14 14 15 15 15 15 15 16
20 19 18 17 17 16 15 15 14 14 13 13 13 13 13 13 12 12 12 12 12 12 12 12 12 12 12 12 12 12 12 13 13 13 14 14 14 15 15 15 15 15 15
19 19 18 17 16 16 15 15 14 14 13 13 13 13 13 12 12 12 12 12 12 12 12 12 12 12 12 12 12 12 12 12 13 13 13 14 14 14 14 15 15 15 15
19 19 18 17 16 16 15 15 14 14 13 13 13 13 13 12 12 12 12 12 12 12 12 12 12 12 12 12 12 12 12 12 13 13 13 13 14 14 14 14 14 14 14
19 18 18 17 16 16 15 15 14 14 14 13 13 13 13 13 13 12 12 12 12 12 12 12 12 12 12 12 12 12 12 12 13 13 13 13 13 13 14 14 14 14 15
19 19 18 17 16 16 15 15 14 14 14 13 13 13 13 13 13 12 12 12 12 12 12 12 12 12 12 12 12 12 12 12 13 13 13 13 13 13 13 13 14 14 15
19 19 18 17 17 16 15 15 14 14 14 14 13 13 13 13 13 13 12 12 12 12 12 12 12 12 12 12 12 12 12 12 12 13 13 13 13 13 13 13 13 13 14
20 19 18 17 17 16 16 15 15 14 14 14 13 13 13 13 13 13 13 12 12 12 12 12 12 12 12 12 12 12 12 12 12 12 12 12 12 13 13 13 13 13 13
20 19 18 17 17 16 16 15 15 14 14 14 13 13 13 13 13 13 13 12 12 12 12 12 12 12 12 12 12 12 12 12 12 12 12 12 12 12 13 13 13 13 13
20 19 18 17 17 16 16 16 15 15 14 14 14 13 13 13 13 13 13 12 13 12 12 12 12 12 12 12 12 12 12 12 12 12 12 12 12 12 12 12 13 13 13
20 19 18 18 17 17 16 16 15 15 15 14 14 14 13 13 13 13 13 13 13 12 12 12 12 12 12 12 12 12 12 12 12 12 12 12 12 12 12 12 12 12 12
20 19 19 18 17 17 16 16 16 15 15 14 14 14 14 13 13 13 13 13 13 13 12 12 12 12 12 12 12 12 12 12 12 12 12 12 12 12 12 12 12 12 12
20 20 19 18 18 17 17 16 16 15 15 14 14 14 14 14 14 13 13 13 13 13 13 13 13 13 13 13 13 12 12 12 12 12 12 12 12 12 12 13 12 12 12
21 20 20 19 18 18 17 16 16 16 15 15 14 14 14 14 14 14 13 13 13 13 13 13 13 13 13 13 13 13 12 12 12 12 12 12 12 12 12 12 12 12 12
20 20 20 19 19 18 17 17 16 16 15 15 14 14 14 14 14 14 14 14 13 13 13 13 13 13 13 13 13 13 12 12 12 12 12 12 12 12 12 12 12 12 12
21 20 20 19 19 18 17 17 16 16 15 15 15 14 14 14 14 14 14 14 13 13 13 13 13 13 13 13 13 13 12 12 12 12 12 12 12 12 12 12 12 12 12
21 20 20 19 19 18 18 17 17 16 16 15 15 15 15 15 14 14 14 14 14 14 13 13 13 13 13 13 13 13 13 12 12 12 12 12 12 12 12 12 12 12 12
21 20 20 19 19 18 18 17 17 16 16 16 15 15 15 15 14 14 14 14 14 14 13 13 13 13 13 13 13 13 13 12 12 12 12 12 12 12 12 12 12 12 12
21 20 20 19 19 19 18 17 17 16 16 16 15 15 15 14 14 14 14 14 14 13 13 13 13 13 13 13 13 13 13 13 12 12 12 12 12 12 12 12 12 12 12
20 20 20 19 19 18 18 17 17 17 16 16 15 15 15 14 14 14 14 13 13 13 13 13 13 12 12 12 13 13 13 13 12 12 12 12 12 12 12 12 12 12 11
20 20 19 19 19 18 18 17 17 17 16 16 15 15 14 14 14 14 13 13 13 13 12 12 12 12 12 12 12 12 12 12 12 12 12 12 12 12 12 12 11 11 11
20 19 19 19 18 18 18 17 17 16 16 15 15 14 14 14 13 13 13 13 13 13 13 12 12 12 12 12 12 12 12 12 12 12 11 11 11 11 11 11 11 11 11
19 19 19 18 18 18 17 17 17 16 15 15 14 14 14 13 13 13 13 13 13 13 12 12 12 12 12 12 12 12 12 12 11 11 11 10 10 10 10 10 10 10 10
Wind_Speed
8 7 7 6 5 3 1 0 2 3 3 4 4 4 4 5 4 4 5 6 6 6 5 5 4 4 4 4 5 4 4 3 3 3 2 3 3 3 3 3 4 5 5
9 8 8 7 5 3 2 1 1 2 3 3 4 4 5 5 4 4 5 6 6 6 5 5 4 4 4 4 4 3 3 3 2 2 2 3 3 3 3 3 3 3 4
10 9 9 7 6 4 2 1 1 1 2 3 3 4 3 3 3 5 5 5 6 5 5 5 5 4 4 3 4 4 3 3 3 2 2 2 2 2 3 3 3 3 3
10 9 9 8 6 4 3 2 1 1 2 3 3 5 5 5 5 5 5 5 5 5 4 4 4 4 4 3 3 3 3 3 3 2 2 2 1 1 1 2 2 3 3
10 10 9 8 6 5 3 3 2 1 2 3 3 4 4 4 4 5 5 5 4 4 4 5 4 4 4 3 3 3 3 3 3 2 2 1 1 2 2 1 2 2 2
10 9 8 7 6 5 4 3 2 1 1 3 3 4 4 5 6 6 6 5 4 4 5 5 4 4 3 3 3 3 3 3 3 3 3 2 2 2 2 2 2 2 1
10 10 10 8 7 6 5 4 3 2 2 3 3 3 4 5 5 6 5 5 5 5 6 5 4 4 4 3 3 3 3 3 4 4 3 2 2 1 2 2 2 2 1
10 10 9 8 7 7 6 5 4 3 2 3 3 3 3 3 4 4 5 5 5 5 6 5 4 4 4 3 3 3 2 2 3 3 3 3 2 2 2 2 2 2 2
10 10 9 9 8 7 6 5 4 3 3 3 2 3 3 3 4 4 4 4 5 5 5 5 4 3 3 3 3 2 2 2 2 2 3 2 2 2 2 3 2 3 3
10 10 9 9 8 7 7 6 5 4 3 3 2 2 3 3 4 4 4 5 5 5 5 5 4 3 3 3 2 2 1 1 1 1 2 2 2 2 2 3 3 3 3
9 10 9 9 8 8 7 6 5 4 3 3 2 2 2 3 3 3 4 4 4 4 5 4 4 4 3 2 2 2 1 1 0 1 1 2 2 2 2 2 2 2 2
8 9 9 9 9 9 8 7 6 5 4 3 3 2 2 2 3 3 4 4 4 4 4 4 4 3 3 2 2 2 2 1 0 0 1 2 1 2 2 2 3 2 3
9 9 9 9 9 9 8 7 6 5 4 4 3 3 3 2 3 3 4 4 4 3 3 3 4 3 2 2 2 2 2 1 1 0 1 1 2 2 2 3 3 2 2
9 10 10 10 10 9 9 8 7 6 5 4 4 3 2 2 3 3 3 3 3 3 3 3 3 3 3 2 2 2 2 1 0 0 1 1 1 2 2 3 3 3 3
10 11 11 10 10 10 9 8 7 7 6 5 4 3 3 2 2 2 2 3 3 3 3 3 3 3 3 3 3 2 1 1 0 0 0 1 1 3 2 3 3 3 3
11 11 11 11 11 11 10 9 8 7 7 6 5 3 3 2 2 2 2 2 2 3 3 3 3 3 2 4 4 4 1 1 0 1 0 0 1 2 2 3 3 4 4
11 11 12 12 12 11 11 10 9 8 8 7 5 4 4 3 2 2 2 2 2 2 3 3 3 2 3 3 3 4 2 1 1 1 1 0 0 2 3 4 6 5 6
10 11 11 11 11 10 10 10 9 9 8 7 6 5 4 3 3 3 2 3 2 2 2 3 3 2 3 3 3 4 3 1 1 1 1 1 1 1 2 3 3 4 4
9 9 10 10 10 11 11 10 10 9 9 8 7 6 5 4 3 3 3 3 3 2 3 2 3 3 2 1 2 5 2 2 1 1 1 2 2 2 3 3 3 3 3
7 8 9 10 10 10 11 11 11 10 9 8 7 6 5 4 4 4 3 3 3 3 3 3 3 3 3 2 2 5 2 2 2 1 1 1 2 2 3 4 4 4 3
7 8 9 9 10 10 11 12 11 10 8 8 7 6 5 5 4 4 3 3 3 3 4 3 3 3 3 1 1 3 3 3 3 2 2 1 1 2 3 6 4 4 5
7 9 9 9 9 10 11 11 10 8 8 7 7 6 5 4 4 4 3 3 3 4 3 3 3 3 2 1 1 2 4 5 3 3 2 1 2 2 3 3 3 4 5
8 8 9 9 9 10 10 11 9 8 8 8 7 6 6 5 4 3 3 3 3 3 3 3 3 3 2 1 2 3 4 4 4 3 2 3 2 4 3 2 3 4 4
8 8 10 10 10 10 10 9 9 9 9 9 8 7 6 5 4 3 2 2 2 3 3 3 3 3 2 2 2 2 2 3 4 3 2 4 3 3 2 2 2 3 2
8 9 10 10 10 10 10 9 9 9 9 9 8 7 6 5 4 3 1 1 1 2 3 3 3 3 3 4 6 4 3 3 2 2 1 1 1 1 1 1 2 2 2
8 9 10 10 10 10 10 10 9 10 10 8 8 6 6 5 5 4 4 4 3 5 4 4 4 2 3 5 5 4 4 4 2 1 0 1 1 2 3 3 3 3 3
Wind_Direction
192 183 183 184 185 180 197 5 339 357 348 342 335 334 339 338 340 342 340 331 323 321 316 307 304 299 295 291 287 281 275 272 270 261 244 214 210 215 226 229 223 210 211
191 184 187 189 194 189 202 243 323 354 354 351 334 326 323 325 335 334 339 340 332 326 320 314 307 300 292 284 285 279 279 276 254 260 251 214 189 196 207 213 215 214 202
200 188 188 190 191 196 195 222 297 340 350 341 333 326 325 319 335 343 345 344 336 328 323 316 310 304 295 289 281 274 269 278 264 251 254 238 209 189 183 203 207 214 218
198 191 188 191 192 192 189 211 232 309 333 328 333 338 337 341 344 337 338 333 335 335 330 318 308 303 299 293 281 277 269 268 265 252 255 289 303 227 193 186 196 205 215
194 190 189 189 189 184 189 208 223 266 315 325 332 319 332 338 334 334 337 337 343 343 340 325 314 307 301 299 294 287 272 256 253 255 245 242 244 251 247 214 208 200 210
189 187 183 183 184 181 187 201 216 242 290 303 311 320 332 329 334 340 342 343 346 343 347 335 324 319 311 306 298 277 262 259 248 248 240 236 231 230 247 245 235 218 207
186 186 185 185 186 188 192 198 210 234 263 288 305 321 326 323 331 336 339 337 341 343 346 336 333 332 321 313 299 276 266 251 243 241 244 241 253 252 252 250 241 242 229
187 189 189 187 189 192 193 200 210 230 254 277 299 315 327 322 336 336 332 332 335 339 340 335 336 334 327 316 305 289 268 259 251 247 240 233 236 245 243 245 242 235 227
188 190 189 189 191 192 194 201 211 227 246 261 279 304 320 326 332 332 334 334 333 337 340 342 340 343 338 326 313 303 291 268 260 252 230 226 222 234 238 243 242 249 247
191 191 189 190 191 191 193 197 210 224 238 249 261 282 300 315 323 329 335 334 335 340 339 341 342 346 340 328 322 318 324 282 257 259 243 229 228 228 228 234 238 251 259
195 192 189 188 188 188 190 194 203 216 224 234 246 260 284 307 316 326 337 333 331 335 340 343 345 346 344 340 333 332 345 313 290 231 239 242 247 237 227 226 226 237 246
194 191 187 184 186 190 192 196 201 207 212 222 238 257 283 294 306 321 330 332 332 333 338 341 344 347 346 343 338 340 338 337 327 218 238 243 232 241 240 233 228 229 237
192 189 187 189 191 193 195 197 201 204 204 210 228 245 260 284 300 316 325 329 332 333 337 336 339 339 339 337 334 331 317 306 293 257 235 244 225 227 225 228 228 230 232
195 194 193 194 195 196 196 197 198 198 201 207 220 236 253 273 290 305 317 325 331 334 337 332 336 335 336 329 325 318 314 305 329 289 260 259 251 245 236 233 228 228 230
200 199 198 197 194 197 197 196 196 195 196 202 213 224 233 248 279 301 310 318 324 325 334 336 338 342 339 354 341 329 330 328 53 27 331 331 343 348 312 281 254 236 233
205 203 200 197 197 196 194 192 194 194 194 200 206 212 230 243 274 289 302 319 313 317 333 341 346 350 356 17 350 319 329 331 52 64 11 202 205 207 236 280 300 294 260
207 202 200 199 199 196 192 192 192 188 193 198 198 207 220 233 259 274 284 292 294 313 319 335 338 342 6 12 343 313 309 306 321 348 4 1 329 253 244 217 217 235 244
207 202 199 196 195 190 188 189 187 188 194 198 200 203 219 232 248 263 275 280 293 302 306 323 327 328 350 4 331 296 273 279 280 287 283 280 295 305 289 261 254 260 247
205 198 194 189 186 185 184 184 186 188 193 198 203 203 211 225 239 251 263 275 283 288 291 306 306 303 316 13 324 293 275 269 270 277 294 295 294 51 308 266 263 272 265
189 182 181 181 182 181 180 186 190 191 196 198 203 202 209 219 231 244 258 266 271 278 283 287 289 294 305 25 334 295 274 278 275 258 241 92 328 354 297 271 269 274 287
178 175 177 181 180 176 179 190 193 197 195 193 196 198 203 214 226 237 246 255 262 273 278 283 283 286 297 303 326 297 281 285 288 287 284 350 93 311 294 285 285 304 301
174 175 177 177 175 177 184 191 193 190 184 185 190 195 202 209 216 224 240 250 257 262 270 278 284 281 268 280 309 278 278 300 284 287 296 356 68 299 285 284 324 308 284
180 179 179 174 173 179 188 190 184 180 178 181 187 193 196 198 209 218 227 239 246 263 276 282 289 294 301 247 204 242 250 261 265 284 8 355 320 279 249 222 277 273 269
186 182 182 181 179 180 186 188 177 175 180 184 189 190 195 196 195 204 228 241 259 266 275 285 293 300 302 322 321 290 253 222 238 254 196 205 233 247 286 283 260 280 301
190 187 190 189 184 179 181 181 177 179 183 187 189 190 191 191 187 170 151 234 46 346 306 301 305 311 312 2 357 323 314 312 311 294 262 278 295 303 325 329 334 325 318
193 192 194 191 186 182 181 178 178 184 188 188 190 190 188 185 184 171 146 81 70 67 47 13 346 12 20 13 15 14 12 8 338 265 196 17 3 353 350 349 348 344 341
Height
1519 1521 1521 1522 1523 1523 1523 1523 1522 1521 1519 1518 1517 1515 1514 1512 1510 1508 1506 1504 1503 1501 1500 1499 1498 1496 1496 1495 1495 1495 1495 1495 1496 1497 1497 1498 1499 1501 1502 1504 1506 1508 1509
1517 1518 1520 1521 1522 1522 1522 1522 1521 1520 1518 1517 1516 1514 1512 1511 1509 1507 1505 1503 1502 1500 1499 1498 1496 1495 1494 1494 1493 1493 1494 1494 1495 1495 1496 1497 1499 1499 1500 1502 1503 1505 1507
1514 1516 1518 1519 1520 1521 1520 1520 1520 1519 1517 1516 1515 1513 1512 1510 1509 1507 1504 1502 1500 1498 1497 1496 1495 1494 1493 1492 1492 1492 1492 1493 1493 1494 1495 1495 1496 1497 1499 1500 1501 1503 1504
1512 1514 1516 1517 1518 1519 1519 1519 1518 1518 1517 1515 1514 1513 1512 1510 1508 1506 1504 1501 1499 1497 1495 1494 1493 1492 1492 1491 1491 1491 1491 1491 1492 1492 1493 1494 1495 1496 1497 1498 1499 1500 1502
1509 1512 1514 1515 1516 1517 1517 1517 1517 1517 1516 1515 1513 1512 1511 1509 1507 1505 1503 1501 1499 1497 1495 1493 1492 1491 1491 1490 1489 1489 1489 1490 1490 1491 1492 1493 1493 1494 1495 1496 1498 1499 1500
1507 1510 1511 1513 1514 1515 1515 1515 1516 1515 1514 1514 1513 1512 1510 1508 1507 1505 1503 1501 1499 1497 1494 1493 1492 1490 1490 1489 1488 1488 1488 1488 1489 1490 1491 1491 1492 1493 1494 1495 1496 1497 1498
1505 1507 1509 1511 1512 1513 1514 1514 1514 1514 1513 1513 1512 1511 1509 1508 1506 1504 1503 1501 1499 1497 1494 1492 1491 1490 1488 1488 1487 1487 1487 1487 1488 1489 1489 1490 1491 1492 1493 1494 1495 1495 1497
1503 1505 1507 1509 1510 1511 1512 1513 1513 1513 1512 1511 1511 1510 1509 1507 1506 1504 1502 1501 1499 1496 1494 1492 1490 1489 1487 1487 1486 1486 1486 1486 1487 1487 1488 1489 1490 1491 1491 1493 1493 1494 1495
1500 1503 1505 1506 1508 1509 1510 1511 1511 1511 1511 1510 1510 1509 1508 1507 1505 1504 1502 1500 1498 1496 1494 1492 1490 1489 1487 1486 1486 1485 1485 1485 1486 1486 1487 1488 1488 1489 1490 1491 1492 1494 1494
1498 1500 1502 1504 1506 1507 1508 1509 1510 1510 1510 1509 1509 1508 1507 1506 1504 1503 1502 1500 1498 1496 1494 1492 1490 1489 1487 1486 1485 1485 1484 1485 1485 1485 1485 1486 1487 1488 1488 1489 1490 1491 1493
1496 1498 1500 1501 1503 1505 1506 1507 1508 1508 1508 1508 1508 1507 1506 1505 1504 1503 1501 1500 1498 1496 1494 1492 1491 1489 1487 1486 1485 1485 1484 1484 1484 1485 1485 1485 1486 1487 1487 1488 1489 1490 1491
1493 1495 1497 1499 1501 1502 1504 1505 1506 1507 1507 1507 1507 1506 1505 1504 1504 1503 1501 1500 1498 1496 1494 1492 1491 1489 1487 1486 1486 1485 1484 1484 1484 1484 1484 1485 1485 1485 1486 1487 1488 1488 1489
1491 1493 1494 1496 1498 1500 1502 1503 1504 1505 1505 1505 1505 1505 1505 1504 1503 1502 1500 1499 1498 1496 1494 1492 1491 1489 1488 1486 1486 1485 1484 1484 1484 1484 1484 1484 1484 1485 1485 1486 1486 1487 1488
1488 1490 1491 1493 1495 1497 1499 1501 1502 1503 1503 1504 1504 1504 1503 1503 1502 1501 1500 1499 1497 1496 1494 1492 1491 1489 1488 1487 1486 1485 1485 1484 1483 1483 1483 1483 1483 1484 1484 1485 1485 1486 1486
1484 1486 1488 1490 1492 1495 1497 1498 1500 1501 1501 1502 1503 1503 1502 1502 1501 1500 1499 1498 1496 1495 1494 1492 1491 1489 1487 1486 1485 1485 1484 1484 1483 1483 1483 1482 1482 1482 1483 1483 1484 1484 1485
1481 1483 1485 1487 1489 1491 1493 1495 1497 1498 1500 1501 1501 1501 1501 1501 1500 1499 1498 1497 1496 1495 1494 1492 1491 1489 1487 1486 1485 1484 1484 1484 1483 1483 1482 1482 1481 1481 1481 1481 1482 1482 1483
1477 1479 1481 1483 1486 1488 1490 1492 1494 1496 1497 1499 1499 1499 1500 1499 1499 1498 1497 1496 1496 1494 1493 1492 1491 1489 1488 1486 1485 1484 1484 1483 1483 1483 1482 1481 1481 1480 1480 1480 1480 1480 1480
1473 1475 1478 1480 1483 1485 1487 1490 1492 1493 1495 1496 1497 1498 1498 1498 1498 1497 1496 1496 1495 1494 1493 1492 1490 1489 1487 1486 1485 1484 1484 1483 1483 1482 1481 1481 1480 1480 1479 1479 1479 1479 1478
1470 1472 1474 1477 1480 1482 1484 1487 1489 1491 1492 1494 1495 1495 1496 1496 1496 1496 1495 1495 1494 1493 1492 1491 1490 1488 1487 1486 1485 1484 1483 1483 1483 1482 1481 1480 1480 1479 1478 1478 1477 1477 1476
1467 1469 1471 1474 1476 1479 1481 1484 1486 1488 1490 1491 1492 1493 1494 1494 1494 1494 1494 1493 1493 1492 1491 1490 1489 1488 1487 1486 1484 1483 1483 1483 1482 1481 1480 1479 1478 1478 1477 1477 1476 1476 1475
1464 1466 1468 1471 1473 1476 1478 1481 1483 1485 1487 1488 1489 1490 1491 1492 1492 1492 1492 1492 1491 1490 1490 1489 1488 1487 1486 1484 1483 1482 1482 1481 1481 1480 1480 1478 1477 1476 1475 1475 1475 1474 1473
1462 1463 1466 1468 1470 1473 1475 1478 1480 1482 1484 1485 1486 1487 1488 1489 1489 1489 1490 1489 1489 1489 1488 1487 1487 1485 1484 1483 1482 1481 1480 1479 1479 1478 1478 1477 1475 1475 1474 1473 1472 1472 1471
1459 1461 1463 1465 1467 1470 1472 1475 1477 1479 1480 1482 1483 1485 1486 1486 1487 1487 1487 1487 1487 1487 1486 1486 1485 1484 1483 1481 1480 1479 1478 1477 1477 1476 1475 1474 1474 1473 1472 1471 1471 1470 1470
1456 1458 1460 1462 1464 1466 1469 1471 1473 1475 1477 1479 1480 1482 1483 1484 1484 1484 1484 1484 1484 1484 1484 1483 1483 1482 1481 1479 1478 1477 1476 1475 1475 1474 1473 1472 1472 1471 1470 1470 1469 1468 1468
1453 1455 1456 1458 1461 1463 1465 1467 1470 1472 1474 1476 1477 1479 1479 1480 1481 1481 1481 1481 1481 1481 1481 1480 1480 1479 1478 1477 1476 1475 1474 1473 1472 1472 1471 1471 1470 1470 1469 1468 1467 1466 1465
1449 1451 1452 1454 1457 1459 1461 1463 1466 1468 1470 1472 1474 1475 1476 1477 1478 1478 1478 1478 1478 1478 1477 1477 1477 1476 1475 1474 1473 1472 1471 1471 1470 1470 1469 1469 1468 1468 1467 1466 1465 1464 1463